When you browse on this site, cookies collect data to enhance your experience and personalize the content and advertising you see.
Visit our Privacy Policy to learn more. By continuing to use the site, you agree to this use of cookies and data.
  • In United Kingdom
  • List of Countries
  • For 7 days
  • Water Temperature
  • Satellite Maps
  • Weather Map
  • Weather Widgets
  • user-avatar
    Login

    Hourly Weather Natitingou

    Today, 21 May, Tuesday

    Time Temperature Precipitation Wind Pressure Humidity
    00:00 +29°C° 0 mm 2 mps 718 mmHg 66%
    01:00 +29°C° 0 mm 2 mps 717 mmHg 68%
    02:00 +28°C° 0 mm 2 mps 717 mmHg 69%
    03:00 +28°C° 0 mm 2 mps 717 mmHg 71%
    04:00 +28°C° 0.2 mm 1 mps 717 mmHg 73%
    05:00 +27°C° 0.2 mm 1 mps 717 mmHg 76%
    06:00 +27°C° 0 mm 1 mps 718 mmHg 82%
    07:00 +27°C° 0 mm 1 mps 718 mmHg 78%
    08:00 +28°C° 0 mm 1 mps 719 mmHg 74%
    09:00 +29°C° 0 mm 2 mps 719 mmHg 70%
    10:00 +31°C° 0 mm 2 mps 719 mmHg 63%
    11:00 +32°C° 0 mm 2 mps 719 mmHg 56%
    12:00 +31°C° 0 mm 3 mps 719 mmHg 58%
    13:00 +34°C° 0 mm 3 mps 718 mmHg 49%
    14:00 +35°C° 0 mm 2 mps 717 mmHg 41%
    15:00 +37°C° 0 mm 2 mps 717 mmHg 32%
    16:00 +34°C° 0 mm 1 mps 716 mmHg 35%
    17:00 +33°C° 0 mm 1 mps 716 mmHg 38%
    18:00 +30°C° 0 mm 0 mps 716 mmHg 41%
    19:00 +29°C° 0 mm 0 mps 716 mmHg 42%
    20:00 +28°C° 0 mm 0 mps 716 mmHg 43%
    21:00 +27°C° 0 mm 0 mps 716 mmHg 44%
    22:00 +27°C° 0 mm 0 mps 716 mmHg 45%
    23:00 +28°C° 0 mm 1 mps 717 mmHg 45%

    Tomorrow, 22 May, Wednesday

    Time Temperature Precipitation Wind Pressure Humidity
    00:00 +28°C° 0 mm 1 mps 717 mmHg 46%
    01:00 +27°C° 0 mm 1 mps 716 mmHg 49%
    02:00 +27°C° 0 mm 1 mps 716 mmHg 53%
    03:00 +26°C° 0 mm 1 mps 716 mmHg 56%
    04:00 +26°C° 0 mm 1 mps 716 mmHg 60%
    05:00 +26°C° 0 mm 1 mps 716 mmHg 63%
    06:00 +26°C° 0 mm 1 mps 716 mmHg 67%
    07:00 +28°C° 0 mm 1 mps 717 mmHg 60%
    08:00 +30°C° 0 mm 2 mps 718 mmHg 53%
    09:00 +34°C° 0 mm 2 mps 718 mmHg 47%
    10:00 +35°C° 0 mm 1 mps 718 mmHg 41%
    11:00 +37°C° 0 mm 1 mps 718 mmHg 35%
    12:00 +40°C° 0 mm 1 mps 718 mmHg 29%
    13:00 +39°C° 0 mm 1 mps 717 mmHg 31%
    14:00 +37°C° 0 mm 1 mps 716 mmHg 33%
    15:00 +36°C° 0 mm 1 mps 715 mmHg 35%
    16:00 +35°C° 0 mm 1 mps 715 mmHg 37%
    17:00 +34°C° 0 mm 1 mps 715 mmHg 39%
    18:00 +33°C° 0 mm 1 mps 715 mmHg 41%
    19:00 +30°C° 0.2 mm 0 mps 715 mmHg 43%
    20:00 +29°C° 0.2 mm 0 mps 716 mmHg 45%
    21:00 +29°C° 0.2 mm 0 mps 716 mmHg 48%
    22:00 +30°C° 0 mm 1 mps 716 mmHg 49%
    23:00 +30°C° 0 mm 1 mps 716 mmHg 51%

    Day after tomorrow, 23 May, Thursday

    Time Temperature Precipitation Wind Pressure Humidity
    00:00 +29°C° 0 mm 2 mps 716 mmHg 53%
    01:00 +29°C° 0 mm 2 mps 716 mmHg 58%
    02:00 +28°C° 0 mm 3 mps 716 mmHg 62%
    03:00 +28°C° 0 mm 3 mps 716 mmHg 67%
    04:00 +27°C° 0 mm 3 mps 716 mmHg 71%
    05:00 +27°C° 0 mm 3 mps 717 mmHg 76%
    06:00 +26°C° 0 mm 3 mps 717 mmHg 81%
    07:00 +27°C° 0 mm 2 mps 717 mmHg 78%
    08:00 +28°C° 0 mm 2 mps 718 mmHg 74%
    09:00 +29°C° 0 mm 2 mps 718 mmHg 71%
    10:00 +31°C° 0 mm 2 mps 718 mmHg 63%
    11:00 +34°C° 0 mm 2 mps 718 mmHg 55%
    12:00 +35°C° 0 mm 2 mps 718 mmHg 46%
    13:00 +36°C° 0 mm 2 mps 717 mmHg 43%
    14:00 +37°C° 0 mm 2 mps 716 mmHg 40%
    15:00 +36°C° 0 mm 1 mps 716 mmHg 37%
    16:00 +36°C° 0 mm 2 mps 715 mmHg 41%
    17:00 +35°C° 0 mm 2 mps 715 mmHg 45%
    18:00 +32°C° 0 mm 2 mps 715 mmHg 49%
    19:00 +31°C° 0.3 mm 2 mps 716 mmHg 53%
    20:00 +30°C° 0.3 mm 2 mps 716 mmHg 58%
    21:00 +28°C° 0.3 mm 1 mps 716 mmHg 63%
    22:00 +28°C° 0 mm 1 mps 716 mmHg 63%
    23:00 +28°C° 0 mm 1 mps 716 mmHg 64%

    24 May, Friday

    Time Temperature Precipitation Wind Pressure Humidity
    00:00 +28°C° 0 mm 1 mps 716 mmHg 64%
    01:00 +27°C° 1 mm 2 mps 716 mmHg 70%
    02:00 +27°C° 1 mm 2 mps 716 mmHg 75%
    03:00 +26°C° 1 mm 2 mps 716 mmHg 80%
    04:00 +26°C° 0 mm 2 mps 716 mmHg 82%
    05:00 +26°C° 0 mm 3 mps 716 mmHg 84%
    06:00 +26°C° 0 mm 3 mps 717 mmHg 86%
    07:00 +27°C° 0 mm 3 mps 717 mmHg 81%
    08:00 +28°C° 0 mm 3 mps 718 mmHg 76%
    09:00 +30°C° 0 mm 4 mps 718 mmHg 72%
    10:00 +32°C° 0 mm 4 mps 718 mmHg 65%
    11:00 +34°C° 0 mm 3 mps 718 mmHg 58%
    12:00 +36°C° 0 mm 3 mps 717 mmHg 51%
    13:00 +36°C° 0 mm 3 mps 717 mmHg 48%
    14:00 +37°C° 0 mm 2 mps 716 mmHg 44%
    15:00 +38°C° 0 mm 2 mps 715 mmHg 41%
    16:00 +36°C° 0.7 mm 2 mps 715 mmHg 47%
    17:00 +34°C° 0.7 mm 2 mps 715 mmHg 53%
    18:00 +32°C° 0.7 mm 1 mps 715 mmHg 60%
    19:00 +31°C° 1 mm 1 mps 715 mmHg 65%
    20:00 +30°C° 1 mm 1 mps 716 mmHg 69%
    21:00 +29°C° 1 mm 1 mps 716 mmHg 74%
    22:00 +29°C° 0 mm 1 mps 716 mmHg 75%
    23:00 +29°C° 0 mm 1 mps 716 mmHg 75%

    25 May, Saturday

    Time Temperature Precipitation Wind Pressure Humidity
    00:00 +28°C° 0 mm 1 mps 716 mmHg 76%
    01:00 +28°C° 0 mm 1 mps 716 mmHg 76%
    02:00 +28°C° 0 mm 1 mps 716 mmHg 77%
    03:00 +28°C° 0 mm 1 mps 716 mmHg 78%
    04:00 +28°C° 0.5 mm 2 mps 716 mmHg 79%
    05:00 +27°C° 0.5 mm 2 mps 716 mmHg 80%
    06:00 +27°C° 0.5 mm 3 mps 716 mmHg 81%
    07:00 +28°C° 0 mm 3 mps 717 mmHg 75%
    08:00 +30°C° 0 mm 3 mps 718 mmHg 69%
    09:00 +31°C° 0 mm 3 mps 718 mmHg 63%
    10:00 +34°C° 0 mm 3 mps 718 mmHg 58%
    11:00 +35°C° 0 mm 3 mps 718 mmHg 53%
    12:00 +37°C° 0 mm 3 mps 717 mmHg 47%
    13:00 +36°C° 0 mm 3 mps 717 mmHg 49%
    14:00 +36°C° 0 mm 2 mps 716 mmHg 50%
    15:00 +35°C° 0 mm 2 mps 715 mmHg 52%
    16:00 +34°C° 0 mm 2 mps 715 mmHg 55%
    17:00 +34°C° 0 mm 2 mps 715 mmHg 57%
    18:00 +32°C° 0 mm 2 mps 716 mmHg 60%
    19:00 +30°C° 2.3 mm 2 mps 716 mmHg 69%
    20:00 +28°C° 2.3 mm 3 mps 716 mmHg 77%
    21:00 +27°C° 2.3 mm 4 mps 716 mmHg 86%
    22:00 +27°C° 0.5 mm 3 mps 716 mmHg 86%
    23:00 +27°C° 0.5 mm 3 mps 716 mmHg 85%

    26 May, Sunday

    Time Temperature Precipitation Wind Pressure Humidity
    00:00 +27°C° 0.5 mm 3 mps 716 mmHg 85%
    01:00 +27°C° 0 mm 2 mps 716 mmHg 86%
    02:00 +26°C° 0 mm 2 mps 716 mmHg 88%
    03:00 +26°C° 0 mm 1 mps 716 mmHg 89%
    04:00 +26°C° 0 mm 2 mps 716 mmHg 88%
    05:00 +26°C° 0 mm 2 mps 717 mmHg 87%
    06:00 +26°C° 0 mm 3 mps 717 mmHg 86%
    07:00 +28°C° 0 mm 3 mps 717 mmHg 81%
    08:00 +29°C° 0 mm 3 mps 718 mmHg 76%
    09:00 +30°C° 0 mm 4 mps 718 mmHg 71%
    10:00 +31°C° 0 mm 3 mps 717 mmHg 64%
    11:00 +34°C° 0 mm 3 mps 717 mmHg 57%
    12:00 +36°C° 0 mm 2 mps 717 mmHg 50%
    13:00 +36°C° 0 mm 2 mps 716 mmHg 48%
    14:00 +37°C° 0 mm 2 mps 715 mmHg 47%
    15:00 +37°C° 0 mm 2 mps 715 mmHg 45%
    16:00 +36°C° 0 mm 2 mps 715 mmHg 50%
    17:00 +35°C° 0 mm 2 mps 715 mmHg 54%
    18:00 +32°C° 0 mm 1 mps 715 mmHg 59%
    19:00 +31°C° 1.2 mm 1 mps 716 mmHg 63%
    20:00 +30°C° 1.2 mm 1 mps 716 mmHg 67%
    21:00 +29°C° 1.2 mm 2 mps 716 mmHg 71%
    22:00 +29°C° 0.1 mm 2 mps 716 mmHg 73%
    23:00 +29°C° 0.1 mm 2 mps 716 mmHg 75%
    Show more